Weather History for Mitchell, SD

Change the Weather History Date:

Wednesday, April 17, 2013

  Actual Average Record
Temperature  
Mean Temperature 34 °F 49 °F  
Max Temperature 38 °F 61 °F 90 °F (1985)
Min Temperature 30 °F 36 °F 11 °F (1907)
Degree Days  
Heating Degree Days 31 16  
Month to date heating degree days 481 344  
Since 1 July heating degree days 7085 6824  
Cooling Degree Days 0 0  
Month to date cooling degree days 0 0  
Year to date cooling degree days 0 0  
Moisture  
Dew Point 28 °F    
Average Humidity 81    
Maximum Humidity 92    
Minimum Humidity 70    
Precipitation  
Precipitation T in 0.08 in 0.64 in (1896)
Month to date precipitation 1.22 0.95  
Year to date precipitation 3.59 2.57  
Snow  
Snow T in - 3.00 in (1910)
Month to date snowfall 9.8  
Since 1 July snowfall 41.1  
Snow Depth 2.00 in    
Sea Level Pressure  
Sea Level Pressure 30.15 in    
Wind  
Wind Speed 16 mph (North)    
Max Wind Speed 26 mph    
Max Gust Speed 30 mph    
Visibility 10 miles    
Events Snow    
T = Trace of Precipitation, MM = Missing Value Source: NWS Daily Summary

Daily Weather History Graph

Daily Weather History Graph

Search for Another Location

Airport:

Trip Planner

Search our weather history database for the weather conditions in past years. The results will help you decide how hot, cold, wet, or windy it might be!

Date:

Astronomy

Apr. 17, 2013 Rise Set
Actual Time 6:45 AM CDT 8:18 PM CDT
Civil Twilight 6:15 AM CDT 8:48 PM CDT
Nautical Twilight 5:38 AM CDT 9:25 PM CDT
Astronomical Twilight 4:59 AM CDT 10:04 PM CDT
Moon 11:56 AM CDT (4/17) 2:01 AM CDT (4/17)
Length of Visible Light 14h 33m
Length of Day
13h 33m
Waxing Crescent, 42% of the Moon is Illuminated
Apr 17
Waxing Crescent
Apr 18
First Quarter
Apr 25
Full
May 2
Last Quarter
May 9
New

Hourly Weather History & Observations

Time (CDT) Temp. Windchill Dew Point Humidity Pressure Visibility Wind Dir Wind Speed Gust Speed Precip Events Conditions
12:53 AM 33.1 °F 25.5 °F 28.0 °F 82% 30.34 in 10.0 mi NE 9.2 mph - N/A   Overcast
1:53 AM 33.1 °F 24.9 °F 28.0 °F 82% 30.35 in 10.0 mi North 10.4 mph - N/A   Overcast
2:53 AM 32.0 °F 24.2 °F 27.0 °F 82% 30.33 in 10.0 mi NNE 9.2 mph - N/A   Overcast
3:53 AM 32.0 °F 21.2 °F 27.0 °F 82% 30.30 in 10.0 mi NNE 16.1 mph - N/A   Overcast
4:53 AM 32.0 °F 22.1 °F 27.0 °F 82% 30.27 in 10.0 mi NNE 13.8 mph 20.7 mph N/A   Overcast
5:53 AM 32.0 °F 22.1 °F 27.0 °F 82% 30.28 in 10.0 mi NNE 13.8 mph - N/A   Overcast
6:01 AM 32.0 °F 23.0 °F 26.6 °F 80% 30.24 in 10.0 mi NNE 11.5 mph - N/A   Overcast
6:53 AM 32.0 °F 23.6 °F 26.1 °F 79% 30.29 in 10.0 mi NNE 10.4 mph - N/A   Overcast
7:07 AM 32.0 °F 23.6 °F 26.6 °F 80% 30.25 in 10.0 mi NE 10.4 mph - N/A   Overcast
7:53 AM 32.0 °F 22.5 °F 27.0 °F 82% 30.26 in 10.0 mi NE 12.7 mph - 0.00 in   Overcast
9:53 AM 34.0 °F 24.6 °F 27.0 °F 75% 30.21 in 10.0 mi NE 13.8 mph - N/A   Unknown
10:53 AM 35.1 °F 27.4 °F 27.0 °F 72% 30.20 in 10.0 mi NNE 10.4 mph - N/A   Overcast
11:53 AM 36.0 °F 28.0 °F 28.0 °F 73% 30.20 in 10.0 mi North 11.5 mph - N/A   Overcast
12:53 PM 36.0 °F 26.3 °F 28.0 °F 73% 30.17 in 10.0 mi North 16.1 mph - N/A   Overcast
1:53 PM 37.9 °F 28.5 °F 30.0 °F 73% 30.12 in 10.0 mi NNE 17.3 mph - N/A   Overcast
2:53 PM 37.0 °F 25.9 °F 30.0 °F 76% 30.10 in 10.0 mi North 23.0 mph 27.6 mph N/A   Overcast
3:41 PM 37.4 °F 26.6 °F 30.2 °F 75% 30.06 in 10.0 mi North 21.9 mph - N/A   Overcast
3:53 PM 37.0 °F 25.6 °F 30.0 °F 76% 30.10 in 10.0 mi North 24.2 mph - N/A   Overcast
4:06 PM 35.6 °F 24.2 °F 30.2 °F 81% 30.06 in 10.0 mi North 21.9 mph - N/A   Overcast
4:14 PM 35.6 °F 24.0 °F 30.2 °F 81% 30.06 in 10.0 mi North 23.0 mph - N/A   Overcast
4:53 PM 35.1 °F 23.8 °F 28.9 °F 78% 30.09 in 10.0 mi North 20.7 mph - N/A   Overcast
5:34 PM 33.8 °F 21.6 °F 30.2 °F 87% 30.05 in 8.0 mi North 23.0 mph 27.6 mph 0.00 in   Overcast
5:49 PM 33.8 °F - 30.2 °F 87% 30.06 in 6.0 mi North - - 0.00 in   Mist
5:53 PM 34.0 °F 22.4 °F 30.0 °F 85% 30.11 in 5.0 mi North 20.7 mph - 0.00 in   Mist
6:25 PM 33.8 °F 21.6 °F 28.4 °F 81% 30.07 in 6.0 mi North 23.0 mph 27.6 mph 0.00 in Snow Light Snow
6:53 PM 33.1 °F 21.5 °F 28.9 °F 85% 30.11 in 10.0 mi North 19.6 mph 27.6 mph 0.00 in   Overcast
7:31 PM 33.8 °F 22.5 °F 28.4 °F 81% 30.06 in 10.0 mi North 19.6 mph 27.6 mph 0.00 in   Unknown
7:53 PM 33.1 °F 21.5 °F 28.9 °F 85% 30.10 in 10.0 mi North 19.6 mph 25.3 mph 0.00 in   Unknown
8:01 PM 32.0 °F 20.1 °F 28.4 °F 87% 30.07 in 10.0 mi North 19.6 mph - 0.00 in   Overcast
8:53 PM 32.0 °F 20.5 °F 28.0 °F 85% 30.12 in 10.0 mi North 18.4 mph 26.5 mph 0.00 in   Overcast
9:25 PM 32.0 °F 19.8 °F 28.4 °F 87% 30.09 in 10.0 mi North 20.7 mph - N/A   Overcast
9:32 PM 32.0 °F 19.8 °F 26.6 °F 80% 30.09 in 10.0 mi NNW 20.7 mph - N/A   Unknown
9:53 PM 30.9 °F 18.7 °F 28.0 °F 89% 30.14 in 10.0 mi NNW 19.6 mph 26.5 mph N/A   Unknown
10:02 PM 30.2 °F 17.4 °F 28.4 °F 93% 30.09 in 10.0 mi NNW 20.7 mph - N/A   Overcast
10:53 PM 30.9 °F 18.7 °F 27.0 °F 85% 30.12 in 10.0 mi North 19.6 mph - N/A   Overcast
11:30 PM 30.2 °F 18.1 °F 26.6 °F 86% 30.05 in 10.0 mi North 18.4 mph 27.6 mph N/A   Overcast
11:53 PM 30.9 °F 19.4 °F 27.0 °F 85% 30.10 in 10.0 mi NNW 17.3 mph - N/A   Overcast